Tracking 18033 objects as of 23-March-2017
HD Live streaming from Space Station
objects crossing your sky now

OPS 6431

Track OPS 6431 now!
10-day predictions
OPS 6431 is classified as:


NORAD ID: 8818
Int'l Code: 1976-038A
Perigee: 373.6 km
Apogee: 1,556.9 km
Inclination: 63.3 °
Period: 104.2 minutes
Semi major axis: 7336 km
RCS: Unknown
Launch date: April 30, 1976
Source: United States (US)
Launch site: AIR FORCE WESTERN TEST RANGE (AFWTR)
Your satellite tracking list
Your tracking list is empty





NASA's NSSDC Master Catalog

Two Line Element Set (TLE):
1 08818U 76038A   17016.75204969 0.00003500  00000-0  20837-3 0    00
2 08818  63.2640 323.4385 0806455 129.4730 230.5270 13.81621057    03
Source of the keplerian elements: McCants